EW5226 Weather Reports


Display with metric or nautical units.
time (UTC)temp
F
wind
direction
speed
MPH
gust
MPH
rain 1hr
in
rain 24hr
in
rain mn
in
humidity
%
barometer
mb
20260505234512 79 302 0.0 1.0 0.00 0.00 0.00 70 1014.5
20260505233010 80 302 0.0 1.0 0.00 0.00 0.00 67 1014.3
20260505231511 82 301 0.0 1.0 0.00 0.00 0.00 65 1014.4
20260505230007 84 347 0.0 2.0 0.00 0.00 0.00 63 1014.5
20260505224506 85 236 0.0 1.0 0.00 0.00 0.00 60 1014.4
20260505223009 86 128 0.0 2.0 0.00 0.00 0.00 58 1014.5
20260505221505 86 286 0.0 3.0 0.00 0.00 0.00 59 1014.6
20260505220008 87 294 0.0 2.0 0.00 0.00 0.00 56 1014.4
20260505214504 87 326 0.0 5.0 0.00 0.00 0.00 57 1014.3
20260505213004 87 321 2.0 5.0 0.00 0.00 0.00 54 1014.3
20260505211503 90 200 0.0 3.0 0.00 0.00 0.00 53 1014.3
20260505210004 88 310 0.0 1.0 0.00 0.00 0.00 44 1014.2
20260505204502 89 355 0.0 2.0 0.00 0.00 0.00 43 1014.1
20260505203104 88 289 0.0 2.0 0.00 0.00 0.00 46 1014.2
20260505201608 87 245 0.0 1.0 0.00 0.00 0.00 48 1014.4
20260505200105 88 72 0.0 0.0 0.00 0.00 0.00 46 1014.5
20260505194657 88 72 0.0 3.0 0.00 0.00 0.00 46 1014.7
20260505193056 89 267 0.0 3.0 0.00 0.00 0.00 48 1014.8
20260505191556 90 335 1.0 3.0 0.00 0.00 0.00 41 1014.9
20260505190100 90 326 0.0 5.0 0.00 0.00 0.00 42 1015.0
20260505184554 91 340 1.0 5.0 0.00 0.00 0.00 41 1015.2
20260505183053 93 214 1.0 5.0 0.00 0.00 0.00 43 1015.3
20260505181549 90 161 0.0 5.0 0.00 0.00 0.00 45 1015.4
20260505180047 87 297 1.0 3.0 0.00 0.00 0.00 47 1015.6
20260505174548 86 53 0.0 7.0 0.00 0.00 0.00 52 1015.8
20260505173049 85 71 5.0 9.0 0.00 0.00 0.00 54 1016.0
20260505171545 88 101 0.0 7.0 0.00 0.00 0.00 54 1016.3
20260505170045 88 60 1.0 5.0 0.00 0.00 0.00 53 1016.5
20260505164542 87 172 0.0 5.0 0.00 0.00 0.00 57 1016.6
20260505163041 86 214 0.0 3.0 0.00 0.00 0.00 56 1016.6
20260505161542 85 59 0.0 5.0 0.00 0.00 0.00 57 1016.7
20260505153040 86 39 0.0 4.0 0.00 0.00 0.00 58 1016.5
20260505151535 86 313 0.0 2.0 0.00 0.00 0.00 58 1016.5
20260505124507 70 76 0.0 4.0 0.00 0.00 0.00 84 1016.1
20260505123005 67 84 0.0 3.0 0.00 0.00 0.00 90 1016.2
20260505121504 64 99 0.0 1.0 0.00 0.00 0.00 92 1016.2
20260505120005 63 103 0.0 1.0 0.00 0.00 0.00 93 1016.2
20260505114501 63 103 0.0 0.0 0.00 0.00 0.00 93 1016.2
20260505113002 62 103 0.0 1.0 0.00 0.00 0.00 94 1015.9
20260505111600 61 221 0.0 0.0 0.00 0.00 0.00 94 1015.6
20260505110109 60 221 0.0 0.0 0.00 0.00 0.00 94 1015.3
20260505101559 60 66 0.0 0.0 0.00 0.00 0.00 93 1015.1
20260505100056 60 66 0.0 0.0 0.00 0.00 0.00 93 1014.9
20260505094555 60 66 0.0 0.0 0.00 0.00 0.00 93 1014.8
20260505093054 61 66 0.0 0.0 0.00 0.00 0.00 93 1014.9
20260505091606 61 67 0.0 0.0 0.00 0.00 0.00 92 1014.9
20260505090051 61 67 0.0 0.0 0.00 0.00 0.00 92 1014.7
20260505084551 61 66 0.0 0.0 0.00 0.00 0.00 92 1014.7
20260505083049 61 67 0.0 0.0 0.00 0.00 0.00 92 1014.5
20260505081552 62 67 0.0 0.0 0.00 0.00 0.00 91 1014.8
20260505080053 62 66 0.0 0.0 0.00 0.00 0.00 90 1014.4
20260505074544 62 66 0.0 0.0 0.00 0.00 0.00 90 1014.6
20260505073045 63 67 0.0 0.0 0.00 0.00 0.00 90 1014.7
20260505071539 63 67 0.0 0.0 0.00 0.00 0.00 88 1014.6
20260505070049 64 67 0.0 0.0 0.00 0.00 0.00 88 1014.9
20260505064535 64 66 0.0 0.0 0.00 0.00 0.00 87 1014.9
20260505063033 65 67 0.0 0.0 0.00 0.00 0.00 86 1015.1
20260505061537 64 66 0.0 0.0 0.00 0.00 0.00 85 1015.6
20260505060029 65 66 0.0 0.0 0.00 0.00 0.00 84 1015.5
20260505054532 66 66 0.0 0.0 0.00 0.00 0.00 83 1015.7
20260505053021 67 66 0.0 0.0 0.00 0.00 0.00 81 1015.8
20260505051520 67 67 0.0 0.0 0.00 0.00 0.00 79 1016.1
20260505041507 70 81 0.0 4.0 0.00 0.00 0.00 74 1016.5
20260505040007 70 70 0.0 1.0 0.00 0.00 0.00 74 1016.5
20260505034505 70 71 0.0 4.0 0.00 0.00 0.00 74 1016.5
20260505033004 70 68 0.0 3.0 0.00 0.00 0.00 74 1016.5
20260505031505 70 60 0.0 1.0 0.00 0.00 0.00 73 1016.4
20260505030004 70 72 0.0 3.0 0.00 0.00 0.00 73 1016.7
20260505024504 71 78 0.0 4.0 0.00 0.00 0.00 72 1016.5
20260505023008 71 354 0.0 2.0 0.00 0.00 0.00 72 1016.3
20260505021502 71 25 0.0 1.0 0.00 0.00 0.00 71 1016.2
20260505020001 72 79 0.0 1.0 0.00 0.00 0.00 70 1016.0
20260505014500 72 33 0.0 2.0 0.00 0.00 0.00 69 1015.8
20260505013100 73 129 0.0 4.0 0.00 0.00 0.00 68 1015.3
20260505011607 74 48 0.0 3.0 0.00 0.00 0.00 68 1015.3
20260505010100 74 75 0.0 5.0 0.00 0.00 0.00 67 1015.1
20260505004559 75 64 0.0 3.0 0.00 0.00 0.00 66 1014.9
20260505003059 75 70 1.0 5.0 0.00 0.00 0.00 64 1014.6
20260505001558 76 86 0.0 7.0 0.00 0.00 0.00 62 1014.8
20260505000115 77 84 0.0 4.0 0.00 0.00 0.00 61 1014.4